Tracking 29088 objects as of 14-Jul-2024
HD Live streaming from Space Station
objects crossing your sky now

COSMOS 1275 DEB

Track COSMOS 1275 DEB now!
10-day predictions


NORAD ID: 13817
Int'l Code: 1981-053HQ
Perigee: 868.4 km
Apogee: 904.5 km
Inclination: 82.9 °
Period: 102.6 minutes
Semi major axis: 7257 km
RCS: 0.0127 m2 (small)
Launch date: June 4, 1981
Source: Commonwealth of Independent States (former USSR) (CIS)
Launch site: PLESETSK MISSILE AND SPACE COMPLEX (PKMTR)

Note: This is SATELLITE DEBRIS
Your satellite tracking list
Your tracking list is empty




NASA's NSSDC Master Catalog

Two Line Element Set (TLE):
1 13817U 81053HM  24195.76533728  .00002345  00000-0  14650-2 0  9991
2 13817  82.9436 106.5560 0024931 285.4672  74.3747 14.04193074157097
Source of the keplerian elements: AFSPC